AB0DE-15 Weather Reports


time (UTC)temp
C
wind
direction
speed
KPH
gust
KPH
rain 1hr
cm
rain 24hr
cm
rain mn
cm
humidity
%
barometer
mb
20260504050511 8 146 0.0 0.0 0.00 0.00 0.00 64 1003.3
20260504045506 8 146 0.0 0.0 0.00 0.00 0.00 64 1003.5
20260504045004 8 147 0.0 0.0 0.00 0.00 0.00 64 1003.4
20260504044516 8 146 0.0 0.0 0.00 0.00 0.00 65 1003.5
20260504044004 8 146 0.0 0.0 0.00 0.00 0.00 64 1003.6
20260504043504 8 146 0.0 0.0 0.00 0.00 0.00 63 1003.7
20260504043010 8 146 0.0 0.0 0.00 0.00 0.00 61 1003.7
20260504042504 8 146 0.0 0.0 0.00 0.00 0.00 61 1003.8
20260504042005 8 146 0.0 0.0 0.00 0.00 0.00 62 1003.8
20260504041514 8 146 0.0 0.0 0.00 0.00 0.00 62 1003.9
20260504041004 9 146 0.0 0.0 0.00 0.00 0.00 61 1004.0
20260504040507 9 147 0.0 0.0 0.00 0.00 0.00 60 1004.1
20260504040026 9 146 0.0 0.0 0.00 0.00 0.00 61 1004.2
20260504035508 9 146 0.0 0.0 0.00 0.00 0.00 62 1004.3
20260504035010 9 146 0.0 0.0 0.00 0.00 0.00 60 1004.3
20260504034526 9 146 0.0 0.0 0.00 0.00 0.00 59 1004.4
20260504034010 10 146 0.0 0.0 0.00 0.00 0.00 60 1004.6
20260504033503 10 146 0.0 0.0 0.00 0.00 0.00 58 1004.5
20260504033011 10 146 0.0 0.0 0.00 0.00 0.00 56 1004.5
20260504032504 10 146 0.0 0.0 0.00 0.00 0.00 56 1004.6
20260504032004 11 148 0.0 0.0 0.00 0.00 0.00 56 1004.8
20260504031512 11 148 0.0 0.0 0.00 0.00 0.00 55 1004.9
20260504031005 11 148 0.0 0.0 0.00 0.00 0.00 54 1004.9
20260504030506 11 148 0.0 0.0 0.00 0.00 0.00 53 1005.0
20260504030018 11 136 0.0 0.0 0.00 0.00 0.00 53 1005.1
20260504025509 11 15 0.0 0.0 0.00 0.00 0.00 53 1005.1
20260504025008 11 15 0.0 0.0 0.00 0.00 0.00 53 1005.1
20260504024523 11 15 0.0 0.0 0.00 0.00 0.00 53 1005.0
20260504024006 11 15 0.0 0.0 0.00 0.00 0.00 51 1005.0
20260504023506 12 15 0.0 0.0 0.00 0.00 0.00 49 1004.9
20260504023025 12 15 0.0 0.0 0.00 0.00 0.00 48 1005.0
20260504022511 12 15 0.0 0.0 0.00 0.00 0.00 46 1004.9
20260504022004 13 15 0.0 0.0 0.00 0.00 0.00 46 1004.9
20260504021508 12 15 0.0 0.0 0.00 0.00 0.00 45 1004.8
20260504021006 13 15 0.0 0.0 0.00 0.00 0.00 45 1004.8
20260504020503 13 15 0.0 0.0 0.00 0.00 0.00 44 1004.8
20260504020017 13 15 0.0 0.0 0.00 0.00 0.00 43 1004.8
20260504015505 13 15 0.0 0.0 0.00 0.00 0.00 43 1004.8
20260504015007 14 15 0.0 0.0 0.00 0.00 0.00 42 1004.8
20260504014538 14 15 0.0 0.0 0.00 0.00 0.00 41 1004.7
20260504014006 15 15 0.0 0.0 0.00 0.00 0.00 40 1004.7
20260504013507 15 15 0.0 0.0 0.00 0.00 0.00 39 1004.7
20260504013025 16 15 0.0 0.0 0.00 0.00 0.00 38 1004.7
20260504012510 16 15 0.0 0.0 0.00 0.00 0.00 37 1004.6
20260504012008 17 15 0.0 1.6 0.00 0.00 0.00 36 1004.7
20260504011524 17 16 0.0 1.6 0.00 0.00 0.00 34 1004.7
20260504011010 17 309 0.0 3.2 0.00 0.00 0.00 34 1004.7
20260504010513 18 309 0.0 3.2 0.00 0.00 0.00 33 1004.6
20260504010010 18 275 0.0 4.8 0.00 0.00 0.00 31 1004.6
20260504005503 18 300 0.0 4.8 0.00 0.00 0.00 30 1004.6
20260504005003 19 290 0.0 6.4 0.00 0.00 0.00 30 1004.6
20260504004519 19 205 1.6 6.4 0.00 0.00 0.00 30 1004.6
20260504004004 20 305 0.0 8.0 0.00 0.00 0.00 29 1004.7
20260504003508 20 295 1.6 8.0 0.00 0.00 0.00 28 1004.7
20260504003022 20 185 3.2 6.4 0.00 0.00 0.00 28 1004.7
20260504002509 21 296 1.6 6.4 0.00 0.00 0.00 28 1004.8
20260504002006 21 277 1.6 11.3 0.00 0.00 0.00 27 1004.8
20260504001504 21 321 3.2 16.1 0.00 0.00 0.00 27 1004.8
20260504001004 21 346 4.8 16.1 0.00 0.00 0.00 28 1004.8
20260504000502 21 224 6.4 16.1 0.00 0.00 0.00 27 1004.8
20260504000020 21 245 3.2 12.9 0.00 0.00 0.00 28 1004.7
20260503235505 21 309 4.8 12.9 0.00 0.00 0.00 28 1004.8
20260503235004 21 318 6.4 12.9 0.00 0.00 0.00 27 1004.8
20260503234515 21 5 3.2 12.9 0.00 0.00 0.00 29 1004.8
20260503234005 21 283 1.6 12.9 0.00 0.00 0.00 29 1004.8
20260503233504 21 248 3.2 11.3 0.00 0.00 0.00 28 1005.0
20260503233021 21 232 3.2 11.3 0.00 0.00 0.00 27 1005.1
20260503232510 21 236 1.6 11.3 0.00 0.00 0.00 27 1005.1
20260503232007 21 171 3.2 9.7 0.00 0.00 0.00 27 1005.1
20260503231527 21 159 3.2 11.3 0.00 0.00 0.00 26 1005.1
20260503231009 21 18 4.8 16.1 0.00 0.00 0.00 25 1005.2
20260503230507 21 293 3.2 19.3 0.00 0.00 0.00 25 1005.2
20260503230007 22 278 6.4 19.3 0.00 0.00 0.00 24 1005.1
20260503225506 22 305 4.8 12.9 0.00 0.00 0.00 25 1005.0
20260503225003 22 279 4.8 12.9 0.00 0.00 0.00 25 1005.0
20260503224513 22 271 4.8 16.1 0.00 0.00 0.00 27 1004.9
20260503224005 22 243 3.2 16.1 0.00 0.00 0.00 25 1005.0
20260503223503 22 13 3.2 16.1 0.00 0.00 0.00 28 1005.0
20260503223013 22 259 4.8 16.1 0.00 0.00 0.00 26 1004.9
20260503222505 22 344 3.2 11.3 0.00 0.00 0.00 29 1005.0
20260503222007 22 329 4.8 14.5 0.00 0.00 0.00 29 1004.9
20260503221518 21 268 1.6 14.5 0.00 0.00 0.00 30 1004.9
20260503221009 22 210 4.8 14.5 0.00 0.00 0.00 28 1004.9
20260503220504 21 44 0.0 16.1 0.00 0.00 0.00 29 1004.8
20260503220027 21 194 6.4 14.5 0.00 0.00 0.00 27 1004.8
20260503215507 22 314 1.6 17.7 0.00 0.00 0.00 28 1004.9
20260503215012 21 320 6.4 17.7 0.00 0.00 0.00 26 1004.9
20260503214522 21 259 6.4 17.7 0.00 0.00 0.00 28 1004.9
20260503214004 21 231 8.0 17.7 0.00 0.00 0.00 28 1004.9
20260503213507 21 250 1.6 17.7 0.00 0.00 0.00 32 1004.8
20260503213012 21 242 8.0 17.7 0.00 0.00 0.00 29 1004.8
20260503212504 21 262 6.4 16.1 0.00 0.00 0.00 30 1004.9
20260503212005 21 291 8.0 16.1 0.00 0.00 0.00 31 1004.9
20260503211520 21 318 8.0 20.9 0.00 0.00 0.00 30 1005.0
20260503211004 21 242 9.7 20.9 0.00 0.00 0.00 29 1005.0
20260503210505 21 278 6.4 16.1 0.00 0.00 0.00 30 1004.9
20260503210039 21 212 3.2 16.1 0.00 0.00 0.00 31 1005.1
20260503205506 21 257 4.8 16.1 0.00 0.00 0.00 32 1005.2
20260503205007 21 294 8.0 16.1 0.00 0.00 0.00 33 1005.2
20260503204526 21 259 4.8 16.1 0.00 0.00 0.00 35 1005.2
20260503204010 21 226 6.4 16.1 0.00 0.00 0.00 33 1005.3
20260503203507 22 240 8.0 16.1 0.00 0.00 0.00 33 1005.3
20260503203014 22 229 4.8 17.7 0.00 0.00 0.00 34 1005.3
20260503202504 21 325 1.6 17.7 0.00 0.00 0.00 32 1005.4
20260503202004 21 155 4.8 12.9 0.00 0.00 0.00 33 1005.4
20260503201519 21 270 1.6 12.9 0.00 0.00 0.00 34 1005.4
20260503201004 21 264 3.2 12.9 0.00 0.00 0.00 32 1005.4
20260503200505 21 255 6.4 19.3 0.00 0.00 0.00 31 1005.5
20260503200017 21 310 4.8 19.3 0.00 0.00 0.00 34 1005.5
20260503195507 21 240 8.0 19.3 0.00 0.00 0.00 31 1005.4
20260503195007 21 280 3.2 12.9 0.00 0.00 0.00 33 1005.5
20260503194523 21 326 3.2 16.1 0.00 0.00 0.00 32 1005.5
20260503194007 21 257 3.2 19.3 0.00 0.00 0.00 31 1005.6
20260503193506 21 228 4.8 19.3 0.00 0.00 0.00 31 1005.7
20260503193029 21 294 9.7 16.1 0.00 0.00 0.00 31 1005.6
20260503192510 21 304 4.8 16.1 0.00 0.00 0.00 37 1005.6
20260503192008 21 141 1.6 20.9 0.00 0.00 0.00 33 1005.5
20260503191509 21 174 8.0 20.9 0.00 0.00 0.00 33 1005.6
20260503191003 21 287 4.8 14.5 0.00 0.00 0.00 34 1005.6
20260503190503 21 267 3.2 19.3 0.00 0.00 0.00 34 1005.6
20260503190015 21 200 4.8 22.5 0.00 0.00 0.00 33 1005.6
20260503185503 21 110 4.8 22.5 0.00 0.00 0.00 34 1005.6
20260503185013 21 277 3.2 19.3 0.00 0.00 0.00 32 1005.7
20260503184529 21 321 8.0 14.5 0.00 0.00 0.00 31 1005.8
20260503184011 20 285 3.2 14.5 0.00 0.00 0.00 32 1005.8
20260503183508 20 26 1.6 17.7 0.00 0.00 0.00 37 1005.8
20260503183026 20 214 4.8 17.7 0.00 0.00 0.00 35 1005.8
20260503182507 20 339 4.8 12.9 0.00 0.00 0.00 37 1005.8
20260503182010 20 359 4.8 12.9 0.00 0.00 0.00 37 1005.9
20260503181529 20 38 3.2 19.3 0.00 0.00 0.00 38 1005.9
20260503181009 20 252 4.8 19.3 0.00 0.00 0.00 37 1006.0
20260503180507 20 260 3.2 19.3 0.00 0.00 0.00 39 1006.0
20260503180028 20 12 8.0 19.3 0.00 0.00 0.00 38 1006.0
20260503175506 20 349 3.2 11.3 0.00 0.00 0.00 41 1006.0
20260503175003 19 30 4.8 12.9 0.00 0.00 0.00 41 1006.0
20260503174524 19 210 4.8 12.9 0.00 0.00 0.00 39 1006.1
20260503174004 19 49 3.2 16.1 0.00 0.00 0.00 41 1006.1
20260503173506 19 23 8.0 16.1 0.00 0.00 0.00 39 1006.1
20260503173021 19 284 4.8 12.9 0.00 0.00 0.00 43 1006.1
20260503172506 18 308 1.6 12.9 0.00 0.00 0.00 43 1006.1
20260503172010 18 154 4.8 14.5 0.00 0.00 0.00 41 1006.2
20260503171528 18 305 4.8 16.1 0.00 0.00 0.00 41 1006.1
20260503171008 18 283 4.8 19.3 0.00 0.00 0.00 42 1006.1
20260503170513 18 294 4.8 19.3 0.00 0.00 0.00 43 1006.0
20260503151003 15 251 4.8 17.7 0.00 0.00 0.00 48 1005.8
20260503150502 15 231 6.4 17.7 0.00 0.00 0.00 48 1005.8
20260503131004 12 233 8.0 17.7 0.00 0.00 0.00 50 1005.9
20260503130505 12 215 8.0 17.7 0.00 0.00 0.00 51 1005.8
20260503110504 11 231 6.4 30.6 0.00 0.00 0.00 53 1005.8
20260503090507 12 156 9.7 17.7 0.00 0.00 0.00 47 1007.2
20260503081523 12 207 8.0 17.7 0.00 0.00 0.00 50 1008.5
20260503081007 12 176 3.2 11.3 0.00 0.00 0.00 51 1008.7
20260503080507 12 255 4.8 9.7 0.00 0.00 0.00 52 1008.8
20260503072503 12 243 8.0 16.1 0.00 0.00 0.00 46 1008.8
20260503072005 12 233 9.7 16.1 0.00 0.00 0.00 46 1008.7
20260503071534 12 266 6.4 17.7 0.00 0.00 0.00 47 1008.8
20260503071009 12 222 6.4 20.9 0.00 0.00 0.00 46 1008.9
20260503070507 12 233 8.0 20.9 0.00 0.00 0.00 46 1008.9